Location: Dompnac
(44.5644°N, 4.1026°E)
Time: 19:02:08
(UTC+00:00)

Cosmos 1634 Rocket - Pass Details

Date: 17 January 2021
Orbit: 961 x 991 km, 82.9° (Epoch: 05 March)

Event Time Altitude Azimuth Distance (km) Brightness Sun altitude
Rises 16:52:34 0° 356° (N) 3,671 6.8 -4.1°
Reaches altitude 10° 16:55:11 10° 2° (N) 2,724 6.1 -4.5°
Maximum altitude 17:01:13 49° 77° (ENE) 1,248 4.2 -5.5°
Drops below altitude 10° 17:07:14 10° 151° (SSE) 2,728 6.3 -6.4°
Sets 17:09:51 0° 156° (SSE) 3,676 7.0 -6.9°
